Location: Albany
(35.0000°S, 118.0000°E)
Time: 09:31:20
(UTC-04:00)

ISS - All Passes

Search period start: 29 July 2015 00:00
Search period end: 08 August 2015 00:00
Orbit: 401 x 403 km, 51.6° (Epoch: 29 July)

Date Brightness Start Highest point End Pass type
(mag) Time Alt. Az. Time Alt. Az. Time Alt. Az.
29 Jul - 04:12:07 10° SSW 04:15:04 29° SE 04:18:02 10° E daylight
29 Jul - 05:48:45 10° WSW 05:51:25 22° NW 05:54:02 10° N visible
29 Jul - 20:48:47 10° NNW 20:51:58 50° NE 20:55:13 10° ESE daylight
29 Jul - 22:26:19 10° WSW 22:28:38 17° SSW 22:30:55 10° SSE daylight
30 Jul - 03:19:37 10° SSW 03:21:55 17° SSE 03:24:15 10° ESE daylight
30 Jul - 04:55:21 10° WSW 04:58:34 49° NW 05:01:45 10° NNE daylight
30 Jul - 19:56:29 10° N 19:59:07 23° NE 20:01:49 10° ESE daylight
30 Jul - 21:32:32 10° W 21:35:28 29° SW 21:38:26 10° SSE daylight
31 Jul - 02:27:34 10° S 02:28:39 11° SSE 02:29:48 10° SE daylight
31 Jul - 04:02:19 10° SW 04:05:38 72° SE 04:08:55 10° NE daylight
31 Jul - 19:05:30 10° NE 19:06:18 11° NE 19:07:15 10° ENE daylight
31 Jul - 20:39:09 10° WNW 20:42:25 57° SW 20:45:42 10° SE daylight
01 Aug - 03:09:32 10° SSW 03:12:36 34° SE 03:15:40 10° ENE daylight
01 Aug - 04:46:29 10° W 04:48:52 18° NW 04:51:11 10° N daylight
01 Aug - 19:46:10 10° NW 19:49:26 64° NE 19:52:44 10° SE daylight
01 Aug - 21:24:07 10° WSW 21:26:11 15° SSW 21:28:13 10° S daylight
02 Aug - 02:16:56 10° SSW 02:19:27 20° SSE 02:22:00 10° E daylight
02 Aug - 03:52:53 10° WSW 03:56:01 39° NW 03:59:07 10° NNE daylight
02 Aug - 18:53:42 10° NNW 18:56:33 28° NE 18:59:28 10° ESE daylight
02 Aug - 20:30:10 10° W 20:32:59 25° SSW 20:35:47 10° SSE daylight
03 Aug - 01:24:41 10° S 01:26:12 13° SSE 01:27:48 10° SE daylight
03 Aug - 02:59:46 10° SW 03:03:06 90° SE 03:06:23 10° NE daylight
03 Aug - 18:02:05 10° NNE 18:03:42 13° NE 18:05:27 10° E visible
03 Aug - 19:36:40 10° WNW 19:39:52 46° SW 19:43:06 10° SE daylight
04 Aug - 02:06:54 10° SW 02:10:04 41° SE 02:13:13 10° ENE daylight
04 Aug - 03:44:15 10° W 03:46:16 15° NW 03:48:11 10° NNW daylight
04 Aug - 18:43:34 10° NW 18:46:51 80° NE 18:50:12 10° SE daylight
04 Aug - 20:21:55 10° WSW 20:23:42 13° SSW 20:25:26 10° S daylight
05 Aug - 01:14:15 10° SSW 01:16:56 23° SSE 01:19:40 10° E daylight
05 Aug - 02:50:25 10° WSW 02:53:25 31° NW 02:56:22 10° NNE daylight
05 Aug - 17:50:55 10° NNW 17:53:56 34° NE 17:57:00 10° ESE visible
05 Aug - 19:27:48 10° W 19:30:27 21° SSW 19:33:05 10° SSE daylight
06 Aug - 00:21:50 10° S 00:23:42 14° SSE 00:25:37 10° ESE daylight
06 Aug - 01:57:11 10° SW 02:00:31 73° NW 02:03:47 10° NE daylight
06 Aug - 16:58:58 10° N 17:01:04 16° NE 17:03:16 10° E visible
06 Aug - 18:34:11 10° WNW 18:37:17 38° SW 18:40:27 10° SSE daylight
07 Aug - 01:04:14 10° SW 01:07:30 50° SE 01:10:43 10° ENE daylight
07 Aug - 02:42:09 10° W 02:43:38 12° NW 02:44:57 10° NNW daylight
07 Aug - 17:40:57 10° NW 17:44:14 82° SW 17:47:35 10° SE visible
07 Aug - 19:19:45 10° SW 19:21:10 12° SSW 19:22:32 10° S daylight
